Hourly Weather Roundup
Issued by NWS Central Illinois

Home | Current Version | Previous Version | Text Only | Print | Product List | Glossary On
Versions: 1 2 3 4 5 6 7 8 9 10 11 12 13 14 15 16 17 18 19 20 21 22 23 24 25 26 27 28 29 30 31 32 33 34 35 36 37 38 39 40 41 42 43 44 45 46 47 48 49 50
000
NZUS43 KILX 211410
HWRILX

AREA WEATHER ROUNDUP
NATIONAL WEATHER SERVICE, LINCOLN IL
800 AM CST TUE FEB 21 2017


CITY           SKY/WX    TMP DP  RH WIND       PRES   REMARKS
BLOOMINGTON    LGT RAIN  55  54  96 SE13      29.96S
CHAMPAIGN      LGT RAIN  54  50  86 CALM      29.96F
DECATUR        LGT RAIN  54  52  93 N9        29.95F FOG
EFFINGHAM      LGT RAIN  54  52  92 E3        29.98R
FLORA          CLOUDY    57  50  79 SE5       29.97R
GALESBURG      CLOUDY    51  51  97 CALM      29.95S
JACKSONVILLE   CLOUDY    56  56  99 E5        29.94R FOG
LACON          PTSUNNY   53  53 100 CALM      29.94F FOG
LAWRENCEVILLE  CLOUDY    53  47  79 SE5       29.98F
LITCHFIELD     DRIZZLE   55  55  97 E5        29.94S
$$


CITY           SKY/WX    TMP DP  RH WIND       PRES   REMARKS
LINCOLN        RAIN      56  56 100 SE7       29.94F
MACOMB         CLOUDY    53  53 100 N9        29.97S FOG
MATTOON        CLOUDY    55  49  80 CALM      29.96S
MT CARMEL AP   CLOUDY    53  47  80 E6        29.98S
OLNEY-NOBLE AP CLOUDY    52  52 100 CALM      29.98S
PARIS          CLOUDY    52  49  89 SE3       29.98F
PEORIA         CLOUDY    56  56 100 CALM      29.95S FOG
PONTIAC        LGT RAIN  55  54  98 NW7       29.98R
RANTOUL        RAIN      54  51  89 NW5       29.97S
SPRINGFIELD    LGT RAIN  58  56  93 E9        29.95S FOG
TAYLORVILLE    DRIZZLE   56  55  97 E6        29.95S
$$

...REGIONAL REPORTS...


CITY           SKY/WX    TMP DP  RH WIND       PRES   REMARKS
CHICAGO O`HARE CLOUDY    56  53  90 W3        29.93R FOG
KANKAKEE       RAIN      52  52  98 CALM      29.94F
MOLINE         CLOUDY    47  44  90 CALM      29.95R FOG
MOUNT STERLING FOG       55  55 100 NW6       29.94R VSB 3/4
MOUNT VERNON   CLOUDY    57  51  80 N5        29.95F
PITTSFIELD     CLOUDY    56  56 100 CALM      29.96R FOG
QUINCY         FOG       55  55 100 N10       29.95R VSB 1/4
ROCKFORD       CLOUDY    50  46  86 NW5       29.96R
$$


CITY           SKY/WX    TMP DP  RH WIND       PRES   REMARKS
BURLINGTON     CLOUDY    50  47  89 NE3       29.95R
CEDAR RAPIDS   MOSUNNY   34  34 100 CALM      29.94F
DES MOINES     PTCLDY    41  40  96 CALM      29.98R FOG
KIRKSVILLE     PTSUNNY   48  44  86 NE5       29.96R
OTTUMWA        FOG       39  39 100 NW5       29.97R VSB 1/4
ST LOUIS       LGT RAIN  61  58  90 E6        29.92S FOG
$$


CITY           SKY/WX    TMP DP  RH WIND       PRES   REMARKS
TERRE HAUTE    CLOUDY    52  47  83 CALM      29.99R
EVANSVILLE     PTSUNNY   57  48  72 CALM      29.99R
INDIANAPOLIS   CLOUDY    53  45  74 SE5       30.00R
LAFAYETTE      CLOUDY    52  48  86 CALM      29.97S
MADISON        PTSUNNY   43  42  97 W5        29.93R FOG
MILWAUKEE      PTSUNNY   56  52  86 W7        29.92R FOG
$$





USA.gov is the U.S. government's official web portal to all federal, state and local government web resources and services.